AAL842 KAVL-KCLT

Flight info

Callsign AAL842
Flight time 0h 23m
Altitude 15000
Route JJENY FILPZ4
Aircraft A319/M-SDE3FGHIRWY/LB1

Departure

Time 2026-05-06 19:52
Airport Asheville Regional Airport (KAVL)

Arrival

Time 2026-05-06 20:16
Airport Charlotte Douglas International Airport (KCLT)
Time Latitude Longitude Altitude Speed Heading
2026-05-06 19:36 35.43611 -82.53929 2135 ft 0 kts 160°
2026-05-06 19:43 35.43624 -82.53935 2134 ft 4 kts 97°
2026-05-06 19:44 35.43618 -82.53958 2135 ft 3 kts 86°
2026-05-06 19:44 35.43613 -82.53980 2133 ft 4 kts 12°
2026-05-06 19:44 35.43588 -82.53982 2135 ft 3 kts 360°
2026-05-06 19:44 35.43569 -82.53978 2133 ft 4 kts 324°
2026-05-06 19:45 35.43557 -82.53969 2134 ft 0 kts 339°
2026-05-06 19:47 35.43558 -82.53969 2134 ft 1 kts 339°
2026-05-06 19:47 35.43570 -82.53965 2134 ft 5 kts 31°
2026-05-06 19:47 35.43549 -82.53944 2133 ft 6 kts 188°
2026-05-06 19:47 35.43517 -82.53993 2135 ft 10 kts 269°
2026-05-06 19:48 35.43571 -82.54045 2135 ft 11 kts 340°
2026-05-06 19:48 35.43645 -82.54078 2135 ft 12 kts 340°
2026-05-06 19:48 35.43725 -82.54113 2135 ft 12 kts 340°
2026-05-06 19:48 35.43811 -82.54152 2135 ft 14 kts 340°
2026-05-06 19:49 35.43905 -82.54194 2135 ft 15 kts 340°
2026-05-06 19:49 35.44006 -82.54240 2135 ft 16 kts 340°
2026-05-06 19:49 35.44113 -82.54288 2135 ft 17 kts 339°
2026-05-06 19:49 35.44222 -82.54337 2135 ft 17 kts 339°
2026-05-06 19:50 35.44331 -82.54386 2135 ft 17 kts 340°
2026-05-06 19:50 35.44443 -82.54436 2135 ft 17 kts 340°
2026-05-06 19:50 35.44544 -82.54482 2135 ft 14 kts 340°
2026-05-06 19:50 35.44636 -82.54523 2135 ft 14 kts 339°
2026-05-06 19:51 35.44651 -82.54614 2134 ft 9 kts 251°
2026-05-06 19:51 35.44610 -82.54655 2135 ft 9 kts 167°
2026-05-06 19:51 35.44571 -82.54638 2135 ft 5 kts 159°
2026-05-06 19:51 35.44353 -82.54540 2135 ft 71 kts 160°
2026-05-06 19:52 35.43669 -82.54232 2135 ft 136 kts 160°
2026-05-06 19:52 35.42648 -82.53767 2395 ft 163 kts 160°
2026-05-06 19:52 35.41588 -82.53289 3235 ft 160 kts 161°
2026-05-06 19:52 35.40565 -82.52824 3992 ft 156 kts 165°
2026-05-06 19:53 35.39510 -82.52307 4460 ft 171 kts 162°
2026-05-06 19:53 35.38552 -82.51291 4867 ft 201 kts 123°
2026-05-06 19:53 35.38364 -82.49501 5182 ft 232 kts 78°
2026-05-06 19:53 35.39221 -82.47751 5462 ft 259 kts 42°
2026-05-06 19:54 35.40727 -82.46329 5971 ft 282 kts 29°
2026-05-06 19:54 35.42433 -82.45070 6677 ft 295 kts 25°
2026-05-06 19:54 35.44230 -82.43790 7574 ft 302 kts 25°
2026-05-06 19:54 35.46042 -82.42443 8490 ft 308 kts 26°
2026-05-06 19:55 35.47860 -82.41015 9484 ft 312 kts 27°
2026-05-06 19:55 35.49687 -82.39516 10282 ft 323 kts 28°
2026-05-06 19:55 35.51610 -82.37897 10644 ft 346 kts 29°
2026-05-06 19:55 35.53616 -82.36173 11346 ft 356 kts 29°
2026-05-06 19:56 35.55653 -82.34402 12153 ft 362 kts 29°
2026-05-06 19:56 35.57720 -82.32602 12964 ft 366 kts 28°
2026-05-06 19:56 35.59680 -82.30549 13762 ft 381 kts 44°
2026-05-06 19:56 35.60996 -82.27654 14407 ft 400 kts 70°
2026-05-06 19:57 35.61353 -82.24240 14782 ft 407 kts 92°
2026-05-06 19:57 35.60910 -82.20813 14901 ft 404 kts 108°
2026-05-06 19:57 35.60115 -82.17570 14938 ft 392 kts 109°
2026-05-06 19:57 35.59369 -82.14360 14943 ft 389 kts 108°
2026-05-06 19:58 35.58652 -82.11160 14953 ft 389 kts 107°
2026-05-06 19:58 35.57941 -82.07956 14956 ft 388 kts 107°
2026-05-06 19:58 35.57238 -82.04753 14963 ft 389 kts 106°
2026-05-06 19:58 35.56607 -82.01524 14967 ft 389 kts 104°
2026-05-06 19:59 35.56031 -81.98324 14967 ft 389 kts 103°
2026-05-06 19:59 35.55471 -81.95074 14972 ft 389 kts 103°
2026-05-06 19:59 35.54915 -81.91829 14899 ft 386 kts 103°
2026-05-06 19:59 35.54360 -81.88627 14662 ft 381 kts 104°
2026-05-06 20:00 35.53801 -81.85468 14380 ft 377 kts 104°
2026-05-06 20:00 35.53232 -81.82335 13942 ft 375 kts 104°
2026-05-06 20:00 35.52659 -81.79226 13526 ft 371 kts 104°
2026-05-06 20:00 35.52094 -81.76162 13142 ft 365 kts 104°
2026-05-06 20:01 35.51538 -81.73151 12762 ft 358 kts 104°
2026-05-06 20:01 35.50998 -81.70199 12379 ft 351 kts 104°
2026-05-06 20:01 35.50470 -81.67300 12002 ft 345 kts 104°
2026-05-06 20:01 35.49952 -81.64454 11626 ft 339 kts 105°
2026-05-06 20:02 35.49443 -81.61659 11242 ft 333 kts 104°
2026-05-06 20:02 35.49179 -81.58845 10877 ft 332 kts 90°
2026-05-06 20:02 35.49371 -81.56003 10675 ft 338 kts 82°
2026-05-06 20:02 35.49660 -81.53132 10450 ft 340 kts 82°
2026-05-06 20:03 35.49940 -81.50259 10216 ft 338 kts 83°
2026-05-06 20:03 35.50213 -81.47403 9993 ft 336 kts 83°
2026-05-06 20:03 35.50484 -81.44549 9605 ft 338 kts 83°
2026-05-06 20:03 35.50758 -81.41692 9228 ft 335 kts 83°
2026-05-06 20:04 35.51032 -81.38867 8835 ft 331 kts 83°
2026-05-06 20:04 35.51303 -81.36081 8395 ft 326 kts 83°
2026-05-06 20:04 35.51570 -81.33336 7971 ft 322 kts 83°
2026-05-06 20:04 35.51834 -81.30624 7577 ft 319 kts 83°
2026-05-06 20:05 35.52091 -81.27953 7373 ft 308 kts 83°
2026-05-06 20:05 35.52334 -81.25420 7195 ft 294 kts 84°
2026-05-06 20:05 35.52563 -81.23023 7078 ft 279 kts 84°
2026-05-06 20:05 35.52782 -81.20705 6915 ft 269 kts 84°
2026-05-06 20:06 35.53004 -81.18446 6622 ft 265 kts 83°
2026-05-06 20:06 35.53248 -81.16207 6290 ft 264 kts 83°
2026-05-06 20:06 35.53502 -81.13982 5917 ft 262 kts 83°
2026-05-06 20:06 35.53755 -81.11781 5608 ft 259 kts 83°
2026-05-06 20:07 35.54005 -81.09604 5304 ft 256 kts 84°
2026-05-06 20:07 35.54252 -81.07460 4979 ft 252 kts 84°
2026-05-06 20:07 35.54485 -81.05338 4644 ft 249 kts 88°
2026-05-06 20:07 35.54268 -81.03355 4274 ft 241 kts 115°
2026-05-06 20:08 35.53493 -81.01591 4026 ft 230 kts 135°
2026-05-06 20:08 35.52376 -81.00274 4005 ft 214 kts 152°
2026-05-06 20:08 35.51142 -80.99469 4032 ft 193 kts 166°
2026-05-06 20:08 35.49912 -80.99111 4012 ft 174 kts 180°
2026-05-06 20:09 35.48722 -80.99006 4011 ft 170 kts 182°
2026-05-06 20:09 35.47553 -80.98903 4016 ft 167 kts 183°
2026-05-06 20:09 35.46401 -80.98803 4015 ft 165 kts 182°
2026-05-06 20:09 35.45245 -80.98704 4013 ft 168 kts 182°
2026-05-06 20:10 35.44074 -80.98603 4017 ft 169 kts 182°
2026-05-06 20:10 35.42902 -80.98501 4015 ft 167 kts 182°
2026-05-06 20:10 35.41748 -80.98401 4014 ft 166 kts 183°
2026-05-06 20:10 35.40587 -80.98301 4016 ft 167 kts 182°
2026-05-06 20:11 35.39423 -80.98200 3949 ft 168 kts 182°
2026-05-06 20:11 35.38262 -80.98099 3777 ft 166 kts 183°
2026-05-06 20:11 35.37106 -80.98000 3568 ft 166 kts 182°
2026-05-06 20:11 35.35956 -80.97900 3367 ft 166 kts 182°
2026-05-06 20:12 35.34804 -80.97801 3159 ft 165 kts 184°
2026-05-06 20:12 35.33663 -80.97701 2940 ft 158 kts 184°
2026-05-06 20:12 35.32641 -80.97608 2749 ft 138 kts 183°
2026-05-06 20:12 35.31731 -80.97531 2585 ft 129 kts 185°
2026-05-06 20:13 35.30841 -80.97456 2410 ft 128 kts 185°
2026-05-06 20:13 35.29967 -80.97381 2247 ft 124 kts 184°
2026-05-06 20:13 35.29102 -80.97307 2086 ft 125 kts 184°
2026-05-06 20:13 35.28241 -80.97233 1921 ft 124 kts 183°
2026-05-06 20:14 35.27380 -80.97159 1765 ft 124 kts 184°
2026-05-06 20:14 35.26518 -80.97096 1510 ft 124 kts 181°
2026-05-06 20:14 35.25663 -80.97017 1368 ft 123 kts 181°
2026-05-06 20:14 35.24781 -80.96940 1173 ft 129 kts 184°
2026-05-06 20:15 35.23899 -80.96861 1032 ft 125 kts 180°
2026-05-06 20:15 35.23031 -80.96776 838 ft 123 kts 180°
2026-05-06 20:15 35.22177 -80.96706 745 ft 122 kts 182°
2026-05-06 20:15 35.21467 -80.96652 742 ft 79 kts 176°
2026-05-06 20:16 35.21085 -80.96619 741 ft 37 kts 175°
2026-05-06 20:16 35.20884 -80.96578 742 ft 25 kts 162°
2026-05-06 20:16 35.20763 -80.96502 739 ft 15 kts 146°
2026-05-06 20:16 35.20711 -80.96440 735 ft 10 kts 106°
2026-05-06 20:17 35.20721 -80.96346 733 ft 12 kts 84°
2026-05-06 20:17 35.20726 -80.96291 733 ft 2 kts 84°
2026-05-06 20:17 35.20735 -80.96185 733 ft 13 kts 84°
2026-05-06 20:17 35.20771 -80.96078 731 ft 14 kts 51°
2026-05-06 20:18 35.20849 -80.96003 732 ft 15 kts 36°
2026-05-06 20:18 35.20931 -80.95929 732 ft 15 kts 36°
2026-05-06 20:18 35.21016 -80.95852 732 ft 15 kts 37°
2026-05-06 20:18 35.21097 -80.95767 732 ft 16 kts 53°
2026-05-06 20:19 35.21122 -80.95639 732 ft 16 kts 85°
2026-05-06 20:19 35.21130 -80.95504 733 ft 16 kts 86°
2026-05-06 20:19 35.21137 -80.95368 733 ft 16 kts 86°
2026-05-06 20:19 35.21145 -80.95239 736 ft 14 kts 86°
2026-05-06 20:20 35.21152 -80.95117 735 ft 15 kts 86°
2026-05-06 20:20 35.21162 -80.95004 733 ft 11 kts 64°
2026-05-06 20:20 35.21234 -80.94988 733 ft 12 kts 354°
2026-05-06 20:20 35.21326 -80.94996 733 ft 14 kts 356°
2026-05-06 20:21 35.21426 -80.95005 733 ft 15 kts 355°
2026-05-06 20:21 35.21523 -80.95014 733 ft 13 kts 355°
2026-05-06 20:21 35.21592 -80.94992 733 ft 10 kts 51°
2026-05-06 20:21 35.21608 -80.94899 733 ft 12 kts 83°
2026-05-06 20:22 35.21613 -80.94792 732 ft 13 kts 87°
2026-05-06 20:22 35.21619 -80.94679 732 ft 14 kts 86°
2026-05-06 20:22 35.21626 -80.94558 732 ft 14 kts 86°
2026-05-06 20:22 35.21643 -80.94443 732 ft 13 kts 70°
2026-05-06 20:23 35.21675 -80.94336 731 ft 14 kts 88°
2026-05-06 20:23 35.21668 -80.94221 732 ft 13 kts 85°
2026-05-06 20:23 35.21720 -80.94133 732 ft 13 kts 48°
2026-05-06 20:23 35.21782 -80.94059 732 ft 12 kts 22°
2026-05-06 20:24 35.21862 -80.94067 732 ft 10 kts 349°
2026-05-06 20:24 35.21929 -80.94088 732 ft 10 kts 330°
2026-05-06 20:24 35.21949 -80.94149 732 ft 7 kts 241°
2026-05-06 20:24 35.21933 -80.94192 731 ft 3 kts 257°
2026-05-06 20:25 35.21931 -80.94210 732 ft 0 kts 260°